Total_Precipitation_Accumulation
0.49 0.46 0.45 0.41 0.35 0.27 0.22 0.22 0.22 0.19 0.16 0.14 0.14 0.11 0.08 0.06 0.04 0.02 0.02 0.01 0.01 0.03 0.07 0.10 0.12 0.14 0.16 0.18 0.22 0.24 0.22 0.20 0.19 0.18 0.17 0.16 0.17 0.17 0.18 0.19 0.20 0.22 0.24
0.49 0.47 0.41 0.39 0.36 0.33 0.29 0.25 0.23 0.25 0.23 0.19 0.16 0.13 0.13 0.11 0.08 0.06 0.03 0.02 0.01 0.02 0.04 0.08 0.14 0.19 0.23 0.25 0.29 0.30 0.27 0.24 0.22 0.21 0.20 0.20 0.20 0.20 0.21 0.22 0.23 0.24 0.26
0.59 0.56 0.49 0.43 0.39 0.38 0.37 0.33 0.31 0.31 0.29 0.24 0.19 0.16 0.14 0.12 0.09 0.08 0.06 0.04 0.03 0.02 0.02 0.06 0.13 0.21 0.24 0.27 0.32 0.35 0.33 0.30 0.28 0.26 0.27 0.27 0.27 0.26 0.26 0.27 0.28 0.29 0.30
0.68 0.68 0.60 0.49 0.44 0.46 0.44 0.39 0.34 0.33 0.29 0.27 0.23 0.19 0.16 0.12 0.10 0.08 0.07 0.05 0.04 0.04 0.03 0.04 0.08 0.14 0.19 0.26 0.36 0.42 0.42 0.37 0.32 0.30 0.30 0.31 0.32 0.33 0.34 0.37 0.38 0.37 0.37
0.84 0.80 0.67 0.56 0.51 0.50 0.48 0.47 0.41 0.38 0.32 0.27 0.25 0.24 0.20 0.15 0.12 0.10 0.07 0.05 0.04 0.04 0.04 0.04 0.05 0.06 0.10 0.18 0.27 0.40 0.50 0.48 0.40 0.35 0.33 0.33 0.34 0.35 0.38 0.43 0.48 0.50 0.51
0.94 0.93 0.84 0.72 0.67 0.60 0.53 0.51 0.48 0.47 0.44 0.39 0.34 0.29 0.26 0.21 0.17 0.13 0.10 0.08 0.06 0.05 0.05 0.05 0.05 0.05 0.05 0.09 0.16 0.26 0.41 0.48 0.47 0.43 0.40 0.40 0.40 0.40 0.42 0.48 0.53 0.57 0.64
1.01 0.99 0.97 0.90 0.80 0.70 0.62 0.58 0.57 0.54 0.52 0.53 0.53 0.43 0.31 0.25 0.20 0.16 0.13 0.11 0.08 0.07 0.07 0.07 0.07 0.07 0.06 0.08 0.11 0.16 0.24 0.34 0.44 0.50 0.50 0.48 0.48 0.50 0.52 0.56 0.61 0.68 0.75
1.14 1.05 0.99 0.98 0.91 0.82 0.78 0.78 0.75 0.70 0.64 0.63 0.66 0.63 0.48 0.35 0.24 0.18 0.16 0.15 0.13 0.13 0.11 0.10 0.09 0.10 0.10 0.09 0.09 0.12 0.16 0.23 0.35 0.49 0.59 0.62 0.64 0.68 0.72 0.78 0.84 0.89 0.93
1.33 1.20 1.09 1.07 1.05 0.93 0.85 0.88 0.91 0.90 0.90 0.88 0.84 0.92 0.81 0.55 0.37 0.25 0.20 0.18 0.17 0.16 0.15 0.14 0.13 0.13 0.13 0.13 0.13 0.14 0.16 0.20 0.29 0.43 0.59 0.72 0.79 0.88 0.98 1.07 1.10 1.15 1.18
1.50 1.36 1.26 1.20 1.17 1.12 1.03 1.04 1.06 1.10 1.14 1.12 1.06 1.00 0.94 0.79 0.72 0.51 0.29 0.23 0.21 0.19 0.20 0.19 0.18 0.17 0.17 0.18 0.20 0.23 0.26 0.30 0.37 0.48 0.66 0.88 1.06 1.22 1.39 1.45 1.49 1.53 1.49
1.53 1.46 1.40 1.36 1.32 1.30 1.28 1.30 1.28 1.25 1.23 1.22 1.18 1.15 1.14 1.03 0.91 0.84 0.60 0.40 0.35 0.31 0.28 0.26 0.24 0.24 0.25 0.26 0.28 0.34 0.42 0.47 0.56 0.68 0.91 1.16 1.35 1.55 1.77 1.91 1.94 1.92 1.82
1.64 1.53 1.52 1.51 1.50 1.48 1.45 1.43 1.43 1.45 1.43 1.37 1.34 1.25 1.20 1.16 1.03 1.04 0.94 0.69 0.61 0.51 0.44 0.40 0.37 0.36 0.35 0.37 0.41 0.50 0.51 0.55 0.63 0.77 1.02 1.28 1.46 1.65 1.82 1.99 2.11 2.08 2.01
1.55 1.50 1.47 1.51 1.56 1.54 1.55 1.57 1.56 1.51 1.53 1.54 1.51 1.45 1.36 1.25 1.17 1.21 1.24 1.05 0.86 0.68 0.63 0.60 0.56 0.54 0.53 0.54 0.55 0.60 0.59 0.63 0.70 0.81 1.00 1.24 1.29 1.28 1.32 1.44 1.66 1.83 1.91
1.41 1.48 1.43 1.37 1.38 1.44 1.49 1.50 1.51 1.48 1.47 1.45 1.42 1.42 1.41 1.31 1.29 1.32 1.40 1.49 1.40 1.09 0.90 0.80 0.74 0.72 0.69 0.66 0.64 0.67 0.57 0.63 0.65 0.72 0.84 0.94 0.98 1.00 1.02 1.10 1.23 1.35 1.47
1.37 1.39 1.34 1.26 1.19 1.19 1.27 1.35 1.36 1.35 1.36 1.36 1.34 1.34 1.37 1.33 1.34 1.38 1.47 1.64 1.83 1.65 1.22 0.90 0.80 0.77 0.78 0.78 0.81 0.74 0.63 0.68 0.67 0.66 0.70 0.71 0.71 0.74 0.78 0.85 0.93 1.01 1.09
1.33 1.32 1.25 1.16 1.10 1.07 1.06 1.13 1.15 1.14 1.18 1.18 1.20 1.22 1.22 1.21 1.26 1.32 1.39 1.46 1.62 1.71 1.44 0.96 0.78 0.74 0.77 0.76 0.78 0.70 0.62 0.69 0.66 0.64 0.65 0.66 0.65 0.64 0.67 0.73 0.78 0.83 0.87
1.23 1.22 1.18 1.13 1.08 1.01 0.96 0.95 0.93 0.96 1.03 1.04 1.07 1.08 1.05 1.04 1.10 1.14 1.20 1.27 1.35 1.46 1.41 1.00 0.81 0.75 0.75 0.72 0.68 0.63 0.58 0.56 0.53 0.58 0.59 0.61 0.63 0.62 0.64 0.68 0.71 0.76 0.79
1.21 1.18 1.14 1.10 1.04 0.99 0.95 0.93 0.88 0.87 0.90 0.94 0.96 1.01 1.00 0.98 1.00 1.03 1.09 1.10 1.11 1.14 1.22 1.05 0.78 0.69 0.65 0.61 0.59 0.57 0.53 0.50 0.46 0.52 0.54 0.58 0.65 0.68 0.65 0.64 0.65 0.69 0.75
1.13 1.10 1.11 1.05 0.97 0.94 0.92 0.90 0.86 0.84 0.85 0.84 0.88 0.95 0.98 1.01 1.03 1.03 1.04 1.04 1.03 1.06 1.12 1.12 0.86 0.69 0.62 0.58 0.59 0.55 0.52 0.51 0.46 0.49 0.52 0.53 0.55 0.60 0.63 0.65 0.65 0.65 0.67
1.03 1.03 1.04 1.09 1.08 1.01 0.98 0.95 0.91 0.87 0.87 0.87 0.88 0.92 0.96 0.96 0.94 0.92 0.94 0.93 0.96 1.01 1.03 1.08 1.00 0.82 0.69 0.59 0.62 0.62 0.59 0.52 0.50 0.50 0.56 0.56 0.56 0.57 0.59 0.60 0.59 0.58 0.59
0.94 0.97 0.98 1.03 1.07 1.06 1.04 1.03 0.99 0.97 0.99 1.01 0.99 0.95 0.94 0.97 0.93 0.88 0.88 0.89 0.92 0.98 1.05 1.12 1.05 0.89 0.74 0.65 0.59 0.56 0.62 0.60 0.57 0.52 0.55 0.55 0.57 0.60 0.63 0.68 0.71 0.71 0.73
0.89 0.96 0.95 1.00 1.08 1.11 1.23 1.19 1.10 1.06 1.05 1.02 0.98 0.90 0.87 0.89 0.88 0.89 0.88 0.88 0.94 1.04 1.13 1.17 1.10 0.93 0.72 0.64 0.65 0.74 0.84 0.94 0.86 0.58 0.62 0.72 0.77 0.83 0.80 0.80 0.89 0.93 0.94
0.98 1.07 1.08 1.08 1.16 1.26 1.32 1.14 1.08 1.00 0.98 0.95 0.88 0.83 0.78 0.75 0.79 0.73 0.77 0.83 0.86 0.96 1.04 1.04 0.97 0.77 0.67 0.64 0.80 0.96 0.99 1.02 0.88 0.70 0.81 0.93 0.87 0.85 0.79 0.82 0.97 0.93 0.91
1.03 1.12 1.17 1.19 1.21 1.24 1.25 1.13 1.04 0.89 0.85 0.82 0.76 0.71 0.69 0.67 0.68 0.74 0.81 0.87 0.79 0.75 0.75 0.73 0.70 0.65 0.65 0.70 0.89 1.11 1.19 1.21 1.03 0.86 0.84 0.93 0.79 0.73 0.69 0.73 0.84 0.84 0.81
1.03 1.09 1.09 1.06 1.04 1.05 1.05 0.96 0.94 0.84 0.82 0.76 0.70 0.68 0.68 0.64 0.72 0.86 0.91 0.92 0.79 0.65 0.66 0.72 0.76 0.73 0.75 0.79 0.86 1.11 1.33 1.45 1.24 0.87 0.73 0.78 0.74 0.72 0.71 0.69 0.74 0.83 0.81
0.92 0.92 0.91 0.87 0.85 0.86 0.92 0.84 0.83 0.81 0.81 0.74 0.69 0.68 0.74 0.72 0.81 0.92 0.88 0.87 0.80 0.64 0.62 0.64 0.65 0.65 0.60 0.61 0.75 0.91 1.30 1.70 1.44 1.06 0.71 0.78 0.82 0.93 1.11 0.78 0.68 0.74 0.78